Regional Weather Roundup
Issued by NWS

Home | Current Version | Previous Version | Text Only | Print | Product List | Glossary Off
Versions: 1 2 3 4 5 6 7 8 9 10 11 12 13 14 15 16 17 18 19 20 21 22 23 24 25 26 27 28 29 30 31 32 33 34 35 36 37 38 39 40 41 42 43 44 45 46 47 48 49 50

000
ASUS45 KBOI 041810
RWRID

IDAHO REGIONAL WEATHER ROUNDUP
NATIONAL WEATHER SERVICE BOISE ID
1200 PM MDT TUE AUG 04 2015

NOTE: "FAIR" INDICATES FEW OR NO CLOUDS BELOW 12000 FEET
WITH NO SIGNIFICANT WEATHER AND/OR OBSTRUCTIONS TO VISIBILITY

IDZ012-014-041900-
SOUTHWEST IDAHO


CITY           SKY/WX    TMP DP  RH WIND       PRES   REMARKS
BOISE          SUNNY     81  50  33 CALM      30.00F
CALDWELL       SUNNY     79  52  38 NW5       30.01S
MOUNTAIN HOME  SUNNY     83  49  31 E8        30.00F
$$

IDZ016-017-041900-
SOUTHCENTRAL IDAHO


CITY           SKY/WX    TMP DP  RH WIND       PRES   REMARKS
BURLEY         SUNNY     77  52  41 E3        30.07S
JEROME         SUNNY     77  50  38 VRB3      30.07F
TWIN FALLS     SUNNY     82  50  32 N9        30.04S
$$

IDZ019>023-041900-
SOUTHEAST IDAHO


CITY           SKY/WX    TMP DP  RH WIND       PRES   REMARKS
IDAHO FALLS    SUNNY     75  51  43 VRB5      30.13F
POCATELLO      MOSUNNY   77  54  44 CALM      30.11F
REXBURG        SUNNY     71  53  52 S8        30.14F
$$

IDZ006-010-011-018-031-032-041900-
CENTRAL IDAHO MOUNTAINS


CITY           SKY/WX    TMP DP  RH WIND       PRES   REMARKS
MCCALL         SUNNY     73  45  36 SW6       30.09R
HAILEY         MOSUNNY   73  52  46 SE12      30.15R
STANLEY          N/A     74  43  32 VRB6      30.18F
SALMON         MOSUNNY   79  48  34 NW3       29.99F
CHALLIS        SUNNY     78  42  27 VRB5      30.08F
$$

IDZ002-004-006-007-026-041900-
NORTHERN IDAHO


CITY           SKY/WX    TMP DP  RH WIND       PRES   REMARKS
LEWISTON       PTSUNNY   82  47  29 W5        29.90S
LOWELL           N/A     80  50  34 CALM      29.92F
COEUR D`ALENE  PTSUNNY   77  46  33 S13       29.93R
MULLAN PASS    PTSUNNY   63  42  46 VRB3      30.12S
$$


USA.gov is the U.S. government's official web portal to all federal, state and local government web resources and services.